MAS179 WMKN-WMKJ

Flight info

Callsign MAS179
Flight time 1h 0m
Altitude 29000
Route LASOB1B LASOB Y346 LATER Y514 NUFFA DCT BIKTA B469 VMR A224 ADLOV ADLOV1E
Aircraft B738/M-SDE2E3FGHIRWXY/LB1

Departure

Time 2026-05-05 09:06
Airport Sultan Mahmud Airport (WMKN)

Arrival

Time 2026-05-05 10:06
Airport Senai International Airport (WMKJ)
Time Latitude Longitude Altitude Speed Heading
2026-05-05 08:44 5.37907 103.10394 25 ft 0 kts 135°
2026-05-05 08:53 5.37907 103.10393 25 ft 0 kts 135°
2026-05-05 08:57 5.37908 103.10392 25 ft 3 kts 135°
2026-05-05 08:57 5.37927 103.10373 27 ft 4 kts 135°
2026-05-05 08:57 5.37946 103.10354 28 ft 4 kts 135°
2026-05-05 08:58 5.37965 103.10335 28 ft 4 kts 135°
2026-05-05 08:58 5.37973 103.10327 29 ft 0 kts 135°
2026-05-05 09:01 5.37973 103.10328 24 ft 1 kts 131°
2026-05-05 09:02 5.37974 103.10339 29 ft 2 kts 63°
2026-05-05 09:02 5.37999 103.10351 26 ft 6 kts 18°
2026-05-05 09:02 5.38045 103.10374 26 ft 9 kts 38°
2026-05-05 09:02 5.38108 103.10403 25 ft 11 kts 353°
2026-05-05 09:03 5.38157 103.10367 26 ft 0 kts 315°
2026-05-05 09:04 5.38168 103.10356 26 ft 6 kts 315°
2026-05-05 09:04 5.38199 103.10297 28 ft 14 kts 275°
2026-05-05 09:05 5.38130 103.10198 28 ft 22 kts 224°
2026-05-05 09:05 5.37922 103.09994 28 ft 80 kts 224°
2026-05-05 09:05 5.37318 103.09402 28 ft 157 kts 224°
2026-05-05 09:05 5.36451 103.08529 550 ft 177 kts 226°
2026-05-05 09:06 5.35646 103.07704 1669 ft 164 kts 223°
2026-05-05 09:06 5.34908 103.06715 2233 ft 191 kts 248°
2026-05-05 09:06 5.34483 103.05346 2503 ft 228 kts 252°
2026-05-05 09:06 5.33897 103.03753 2740 ft 256 kts 249°
2026-05-05 09:07 5.33261 103.02118 3510 ft 255 kts 248°
2026-05-05 09:07 5.32608 103.00456 4225 ft 261 kts 248°
2026-05-05 09:07 5.31918 102.98705 4812 ft 276 kts 248°
2026-05-05 09:07 5.31204 102.96894 5736 ft 280 kts 248°
2026-05-05 09:08 5.30486 102.95076 6719 ft 283 kts 248°
2026-05-05 09:08 5.29754 102.93222 7535 ft 289 kts 248°
2026-05-05 09:08 5.29006 102.91329 8428 ft 294 kts 248°
2026-05-05 09:08 5.28243 102.89398 9291 ft 300 kts 247°
2026-05-05 09:09 5.27472 102.87447 10171 ft 303 kts 247°
2026-05-05 09:09 5.26670 102.85418 10676 ft 323 kts 248°
2026-05-05 09:09 5.25822 102.83273 11165 ft 338 kts 247°
2026-05-05 09:09 5.24956 102.81081 12051 ft 337 kts 248°
2026-05-05 09:10 5.24085 102.78872 12842 ft 342 kts 248°
2026-05-05 09:10 5.23209 102.76655 13701 ft 345 kts 247°
2026-05-05 09:10 5.22317 102.74399 14355 ft 350 kts 248°
2026-05-05 09:10 5.21414 102.72117 15120 ft 352 kts 247°
2026-05-05 09:11 5.20214 102.69979 15736 ft 357 kts 226°
2026-05-05 09:11 5.18225 102.68521 16444 ft 356 kts 206°
2026-05-05 09:11 5.15999 102.67390 17074 ft 362 kts 205°
2026-05-05 09:11 5.13733 102.66230 17680 ft 368 kts 205°
2026-05-05 09:12 5.11443 102.65049 18294 ft 373 kts 205°
2026-05-05 09:12 5.09126 102.63847 18876 ft 376 kts 206°
2026-05-05 09:12 5.06779 102.62623 19495 ft 378 kts 206°
2026-05-05 09:12 5.04473 102.61416 20065 ft 381 kts 206°
2026-05-05 09:13 5.02100 102.60174 20618 ft 385 kts 206°
2026-05-05 09:13 4.99690 102.58913 21187 ft 388 kts 206°
2026-05-05 09:13 4.97277 102.57672 21741 ft 391 kts 203°
2026-05-05 09:13 4.94693 102.56959 22213 ft 393 kts 181°
2026-05-05 09:14 4.91998 102.57274 22771 ft 391 kts 161°
2026-05-05 09:14 4.89478 102.58284 23343 ft 392 kts 156°
2026-05-05 09:14 4.86944 102.59341 23737 ft 397 kts 156°
2026-05-05 09:14 4.84370 102.60397 24156 ft 399 kts 156°
2026-05-05 09:15 4.81775 102.61447 24737 ft 397 kts 157°
2026-05-05 09:15 4.79253 102.62460 25391 ft 393 kts 157°
2026-05-05 09:15 4.77541 102.63145 25836 ft 391 kts 157°
2026-05-05 09:15 4.74197 102.64479 26606 ft 390 kts 157°
2026-05-05 09:16 4.72495 102.65157 27016 ft 389 kts 157°
2026-05-05 09:16 4.69976 102.66162 27612 ft 388 kts 157°
2026-05-05 09:16 4.67475 102.67159 28234 ft 386 kts 158°
2026-05-05 09:16 4.64978 102.68154 28767 ft 387 kts 158°
2026-05-05 09:17 4.62464 102.69157 28763 ft 391 kts 158°
2026-05-05 09:17 4.57450 102.71154 28791 ft 384 kts 158°
2026-05-05 09:18 4.52479 102.73134 28803 ft 386 kts 158°
2026-05-05 09:18 4.47486 102.75122 28803 ft 387 kts 158°
2026-05-05 09:19 4.42470 102.77120 28800 ft 388 kts 157°
2026-05-05 09:19 4.37452 102.79119 28792 ft 387 kts 157°
2026-05-05 09:20 4.32461 102.81106 28797 ft 385 kts 157°
2026-05-05 09:20 4.27483 102.83089 28796 ft 384 kts 157°
2026-05-05 09:21 4.22519 102.85066 28791 ft 383 kts 157°
2026-05-05 09:21 4.17566 102.87037 28789 ft 383 kts 157°
2026-05-05 09:22 4.12647 102.88994 28789 ft 383 kts 157°
2026-05-05 09:22 4.07686 102.90969 28791 ft 384 kts 157°
2026-05-05 09:23 4.02717 102.92945 28803 ft 385 kts 157°
2026-05-05 09:23 3.97737 102.94927 28779 ft 386 kts 157°
2026-05-05 09:24 3.92751 102.96911 28778 ft 385 kts 157°
2026-05-05 09:24 3.87779 102.98888 28781 ft 384 kts 157°
2026-05-05 09:25 3.82810 103.00866 28791 ft 383 kts 157°
2026-05-05 09:25 3.77850 103.02838 28780 ft 383 kts 157°
2026-05-05 09:26 3.72905 103.04802 28772 ft 382 kts 157°
2026-05-05 09:26 3.67972 103.06760 28788 ft 381 kts 157°
2026-05-05 09:27 3.63034 103.08722 28780 ft 382 kts 157°
2026-05-05 09:27 3.58083 103.10689 28796 ft 383 kts 157°
2026-05-05 09:28 3.53118 103.12661 28782 ft 384 kts 157°
2026-05-05 09:28 3.48140 103.14638 28783 ft 385 kts 157°
2026-05-05 09:29 3.43160 103.16616 28784 ft 385 kts 157°
2026-05-05 09:29 3.38179 103.18594 28787 ft 385 kts 157°
2026-05-05 09:30 3.33203 103.20570 28788 ft 384 kts 157°
2026-05-05 09:30 3.30734 103.21605 28476 ft 386 kts 151°
2026-05-05 09:30 3.28483 103.23029 28118 ft 381 kts 141°
2026-05-05 09:30 3.26537 103.24804 27778 ft 376 kts 132°
2026-05-05 09:31 3.24764 103.26719 27388 ft 373 kts 132°
2026-05-05 09:31 3.23007 103.28613 27006 ft 371 kts 132°
2026-05-05 09:31 3.21255 103.30493 26624 ft 369 kts 132°
2026-05-05 09:31 3.19502 103.32366 26244 ft 367 kts 132°
2026-05-05 09:32 3.17762 103.34218 25864 ft 365 kts 132°
2026-05-05 09:32 3.16024 103.36066 25497 ft 363 kts 132°
2026-05-05 09:32 3.14292 103.37905 25096 ft 363 kts 132°
2026-05-05 09:32 3.12565 103.39737 24721 ft 361 kts 132°
2026-05-05 09:33 3.10844 103.41563 24334 ft 361 kts 132°
2026-05-05 09:33 3.09123 103.43388 23962 ft 360 kts 132°
2026-05-05 09:33 3.07401 103.45215 23576 ft 360 kts 132°
2026-05-05 09:33 3.05686 103.47033 23159 ft 359 kts 132°
2026-05-05 09:34 3.03979 103.48844 22746 ft 357 kts 132°
2026-05-05 09:34 3.02280 103.50645 22369 ft 355 kts 132°
2026-05-05 09:34 3.00598 103.52430 21993 ft 352 kts 132°
2026-05-05 09:34 2.98930 103.54198 21626 ft 350 kts 132°
2026-05-05 09:35 2.97262 103.55967 21257 ft 348 kts 132°
2026-05-05 09:35 2.93965 103.59464 20539 ft 343 kts 132°
2026-05-05 09:35 2.92351 103.61175 20185 ft 341 kts 132°
2026-05-05 09:36 2.90727 103.62892 19825 ft 340 kts 133°
2026-05-05 09:36 2.88909 103.64406 19445 ft 341 kts 146°
2026-05-05 09:36 2.86789 103.65485 19020 ft 343 kts 155°
2026-05-05 09:36 2.84593 103.66422 18644 ft 343 kts 155°
2026-05-05 09:37 2.82416 103.67373 18296 ft 341 kts 154°
2026-05-05 09:37 2.80249 103.68330 17894 ft 340 kts 154°
2026-05-05 09:37 2.78091 103.69291 17517 ft 338 kts 154°
2026-05-05 09:37 2.75956 103.70244 17153 ft 335 kts 154°
2026-05-05 09:38 2.73832 103.71192 16795 ft 333 kts 154°
2026-05-05 09:38 2.71725 103.72136 16445 ft 330 kts 154°
2026-05-05 09:38 2.69649 103.73082 16091 ft 326 kts 154°
2026-05-05 09:38 2.67596 103.74022 15753 ft 320 kts 154°
2026-05-05 09:39 2.65593 103.74941 15420 ft 315 kts 154°
2026-05-05 09:39 2.63612 103.75848 15091 ft 310 kts 154°
2026-05-05 09:39 2.61668 103.76739 14766 ft 306 kts 154°
2026-05-05 09:39 2.59741 103.77620 14445 ft 302 kts 154°
2026-05-05 09:40 2.57839 103.78491 14130 ft 299 kts 154°
2026-05-05 09:40 2.55957 103.79352 13795 ft 296 kts 154°
2026-05-05 09:40 2.54096 103.80203 13476 ft 293 kts 154°
2026-05-05 09:40 2.52252 103.81047 13130 ft 289 kts 154°
2026-05-05 09:41 2.50435 103.81878 12806 ft 286 kts 154°
2026-05-05 09:41 2.48634 103.82702 12493 ft 282 kts 154°
2026-05-05 09:41 2.46860 103.83513 12179 ft 280 kts 154°
2026-05-05 09:41 2.45086 103.84325 11929 ft 281 kts 154°
2026-05-05 09:42 2.43320 103.85132 11745 ft 281 kts 154°
2026-05-05 09:42 2.41500 103.85965 11469 ft 292 kts 154°
2026-05-05 09:42 2.39620 103.86778 11144 ft 296 kts 162°
2026-05-05 09:42 2.37589 103.86902 10801 ft 294 kts 193°
2026-05-05 09:43 2.35667 103.86299 10541 ft 288 kts 197°
2026-05-05 09:43 2.33761 103.85724 10215 ft 285 kts 196°
2026-05-05 09:43 2.31887 103.85177 10068 ft 275 kts 196°
2026-05-05 09:43 2.30070 103.84648 9787 ft 271 kts 196°
2026-05-05 09:44 2.28269 103.84124 9488 ft 268 kts 196°
2026-05-05 09:44 2.26491 103.83606 9196 ft 264 kts 196°
2026-05-05 09:44 2.24720 103.83089 8933 ft 266 kts 196°
2026-05-05 09:44 2.22929 103.82567 8652 ft 271 kts 196°
2026-05-05 09:45 2.21100 103.82033 8375 ft 276 kts 196°
2026-05-05 09:45 2.19247 103.81492 8066 ft 277 kts 196°
2026-05-05 09:45 2.17406 103.80955 7761 ft 273 kts 196°
2026-05-05 09:45 2.15598 103.80427 7467 ft 269 kts 196°
2026-05-05 09:46 2.13817 103.79907 7178 ft 265 kts 196°
2026-05-05 09:46 2.12077 103.79399 6905 ft 262 kts 196°
2026-05-05 09:46 2.10313 103.78885 6626 ft 259 kts 197°
2026-05-05 09:46 2.08607 103.78387 6355 ft 256 kts 197°
2026-05-05 09:47 2.06905 103.77890 6074 ft 253 kts 197°
2026-05-05 09:47 2.05239 103.77384 5871 ft 251 kts 198°
2026-05-05 09:47 2.03547 103.76849 5703 ft 259 kts 198°
2026-05-05 09:47 2.01813 103.76298 5515 ft 264 kts 198°
2026-05-05 09:48 2.00057 103.75741 5319 ft 266 kts 198°
2026-05-05 09:48 1.98299 103.75185 5128 ft 267 kts 198°
2026-05-05 09:48 1.96521 103.74623 4938 ft 269 kts 198°
2026-05-05 09:48 1.94738 103.74060 4737 ft 267 kts 198°
2026-05-05 09:49 1.92989 103.73507 4544 ft 262 kts 198°
2026-05-05 09:49 1.91258 103.72961 4347 ft 260 kts 198°
2026-05-05 09:49 1.89523 103.72413 4164 ft 261 kts 198°
2026-05-05 09:49 1.87797 103.71869 3984 ft 261 kts 198°
2026-05-05 09:50 1.86065 103.71323 3796 ft 258 kts 197°
2026-05-05 09:50 1.84396 103.70747 3593 ft 250 kts 206°
2026-05-05 09:50 1.83161 103.69603 3401 ft 242 kts 243°
2026-05-05 09:50 1.82581 103.68075 3280 ft 232 kts 251°
2026-05-05 09:51 1.82041 103.66591 3114 ft 226 kts 249°
2026-05-05 09:51 1.81493 103.65114 2958 ft 222 kts 249°
2026-05-05 09:51 1.80969 103.63697 2794 ft 217 kts 249°
2026-05-05 09:51 1.80390 103.62325 2622 ft 212 kts 235°
2026-05-05 09:52 1.79242 103.61500 2472 ft 202 kts 187°
2026-05-05 09:52 1.77903 103.61757 2397 ft 203 kts 153°
2026-05-05 09:52 1.76591 103.62361 2251 ft 213 kts 160°
2026-05-05 09:52 1.75171 103.62835 2077 ft 210 kts 162°
2026-05-05 09:53 1.73831 103.63329 1995 ft 201 kts 158°
2026-05-05 09:53 1.72578 103.63816 2009 ft 188 kts 160°
2026-05-05 09:53 1.71407 103.64247 1995 ft 172 kts 160°
2026-05-05 09:53 1.70329 103.64641 1987 ft 161 kts 161°
2026-05-05 09:54 1.69301 103.65017 1994 ft 153 kts 160°
2026-05-05 09:54 1.68311 103.65379 1999 ft 151 kts 161°
2026-05-05 09:54 1.67337 103.65738 1977 ft 154 kts 160°
2026-05-05 09:54 1.66313 103.66175 1537 ft 160 kts 156°
2026-05-05 09:55 1.65329 103.66618 1278 ft 142 kts 156°
2026-05-05 09:55 1.64375 103.66661 1215 ft 144 kts 205°
2026-05-05 09:55 1.63772 103.65870 958 ft 153 kts 261°
2026-05-05 09:55 1.63990 103.64858 731 ft 152 kts 311°
2026-05-05 09:56 1.64679 103.64138 1306 ft 144 kts 315°
2026-05-05 09:56 1.65478 103.63284 1007 ft 208 kts 309°
2026-05-05 09:56 1.66536 103.62278 2136 ft 209 kts 335°
2026-05-05 09:56 1.67971 103.61954 3327 ft 221 kts 356°
2026-05-05 09:57 1.69632 103.61782 3942 ft 258 kts 352°
2026-05-05 09:57 1.71496 103.61371 4589 ft 284 kts 346°
2026-05-05 09:57 1.73288 103.60984 5378 ft 243 kts 348°
2026-05-05 09:57 1.74868 103.60653 5786 ft 222 kts 348°
2026-05-05 09:58 1.76322 103.60349 6045 ft 206 kts 348°
2026-05-05 09:58 1.77708 103.59896 5822 ft 217 kts 337°
2026-05-05 09:58 1.79053 103.59187 5669 ft 223 kts 324°
2026-05-05 09:58 1.80246 103.58146 5461 ft 231 kts 313°
2026-05-05 09:59 1.81284 103.56914 5397 ft 231 kts 312°
2026-05-05 09:59 1.82354 103.55741 5443 ft 225 kts 311°
2026-05-05 09:59 1.83033 103.54962 5643 ft 213 kts 311°
2026-05-05 09:59 1.83820 103.53742 5343 ft 225 kts 287°
2026-05-05 10:00 1.84322 103.52221 5398 ft 214 kts 305°
2026-05-05 10:00 1.85427 103.51390 5634 ft 200 kts 350°
2026-05-05 10:00 1.86808 103.51562 5422 ft 209 kts 26°
2026-05-05 10:00 1.88018 103.52484 4934 ft 233 kts 54°
2026-05-05 10:01 1.88512 103.53989 4891 ft 230 kts 92°
2026-05-05 10:01 1.88218 103.55591 4558 ft 244 kts 109°
2026-05-05 10:01 1.87446 103.57100 4437 ft 243 kts 126°
2026-05-05 10:01 1.86471 103.58286 5165 ft 203 kts 136°
2026-05-05 10:02 1.85270 103.58917 5634 ft 191 kts 172°
2026-05-05 10:02 1.83931 103.59092 5832 ft 214 kts 169°
2026-05-05 10:02 1.82404 103.59530 5451 ft 236 kts 153°
2026-05-05 10:02 1.80991 103.60258 5382 ft 223 kts 160°
2026-05-05 10:03 1.79458 103.60750 4670 ft 242 kts 161°
2026-05-05 10:03 1.77811 103.61354 3948 ft 259 kts 161°
2026-05-05 10:03 1.76112 103.62085 3263 ft 269 kts 155°
2026-05-05 10:03 1.74360 103.62711 2466 ft 273 kts 163°
2026-05-05 10:04 1.72482 103.63333 1155 ft 286 kts 161°
2026-05-05 10:04 1.70751 103.63895 1083 ft 240 kts 162°
2026-05-05 10:04 1.69265 103.64382 917 ft 208 kts 157°
2026-05-05 10:04 1.67927 103.64700 651 ft 190 kts 175°
2026-05-05 10:05 1.66804 103.65041 609 ft 155 kts 137°
2026-05-05 10:05 1.66173 103.65771 652 ft 124 kts 126°
2026-05-05 10:05 1.65577 103.66392 266 ft 127 kts 151°
2026-05-05 10:05 1.64721 103.66720 215 ft 141 kts 161°
2026-05-05 10:06 1.63844 103.67023 203 ft 113 kts 161°
2026-05-05 10:06 1.63372 103.67191 208 ft 36 kts 161°
2026-05-05 10:06 1.63133 103.67277 199 ft 38 kts 159°
2026-05-05 10:06 1.62881 103.67367 206 ft 39 kts 160°
2026-05-05 10:07 1.62718 103.67307 203 ft 27 kts 263°
2026-05-05 10:07 1.62847 103.67198 202 ft 25 kts 340°
2026-05-05 10:07 1.63007 103.67139 206 ft 24 kts 340°
2026-05-05 10:07 1.63157 103.67086 203 ft 23 kts 340°
2026-05-05 10:08 1.63303 103.67034 200 ft 22 kts 340°
2026-05-05 10:08 1.63362 103.66941 203 ft 9 kts 271°
2026-05-05 10:08 1.63404 103.66902 199 ft 9 kts 341°
2026-05-05 10:08 1.63465 103.66881 199 ft 10 kts 340°
2026-05-05 10:09 1.63537 103.66855 202 ft 12 kts 340°
2026-05-05 10:09 1.63600 103.66833 201 ft 7 kts 340°
2026-05-05 10:09 1.63650 103.66815 208 ft 9 kts 338°
2026-05-05 10:09 1.63667 103.66762 199 ft 9 kts 256°
2026-05-05 10:10 1.63659 103.66737 205 ft 2 kts 251°
2026-05-05 10:10 1.63657 103.66732 199 ft 0 kts 251°